Miscellaneous Local Product
Issued by NWS North Platte, NE

Home | Current Version | Previous Version | Text Only | Print | Product List | Glossary On
Versions: 1 2 3 4 5 6 7 8 9 10 11 12 13 14 15 16 17 18 19 20 21 22 23 24 25 26 27 28 29 30 31 32 33 34 35 36 37 38 39 40 41 42 43 44 45 46 47 48 49 50
115
AXUS43 KLBF 182310
MISLBF


WESTERN AND NORTH CENTRAL NEBRASKA HOURLY WEATHER ROUNDUP
NATIONAL WEATHER SERVICE NORTH PLATTE NE
500 PM CST SUN FEB 18 2018

NOTE: "FAIR" INDICATES FEW OR NO CLOUDS BELOW 12,000 FEET WITH NO
SIGNIFICANT WEATHER AND/OR OBSTRUCTIONS TO VISIBILITY.

NOTE: STATIONS NOT REPORTING VARIABLES SUCH AS SKY/WEATHER OR
PRESSURE ARE PROVIDED BY RAWS AND APRS NETWORKS AND ARE NOT UNDER
NATIONAL WEATHER SERVICE QUALITY CONTROL.

...OBSERVATIONS IN AND NEAR THE EASTERN PANHANDLE OF NEBRASKA...

CITY           SKY/WX    TMP DP  RH WIND       PRES   REMARKS
PINE RIDGE     FLURRIES  18  12  77 N22G29    29.70R WCI   1
GORDON         FLURRIES  19  15  81 N20G33    29.65R WCI   4
CHADRON        CLOUDY    18  12  77 NE25G35   29.71R WCI   0
ALLIANCE       CLOUDY    24  20  84 N21       29.58R WCI   9
SIDNEY         MOSUNNY   47  29  49 NE30G41   29.46R
$$

...OBSERVATIONS IN NORTHERN NEBRASKA AND FAR SOUTHERN SOUTH DAKOTA...

CITY           SKY/WX    TMP DP  RH WIND       PRES   REMARKS
WINNER         CLOUDY    24  20  84 N25G33    29.70R WCI   8
VALENTINE      CLOUDY    25  18  74 N20G31    29.65R WCI  11
AINSWORTH      CLOUDY    26  25  94 N21G30    29.65R WCI  12
O`NEILL        MOSUNNY   33  27  79 N18G28    29.59S WCI  22
THEDFORD       CLOUDY    31  25  79 N15G23    29.63R WCI  20
BROKEN BOW     SUNNY     44  30  57 N16       29.54R
ORD            SUNNY     44  29  55 N15G25    29.55R
ALBION         SUNNY     53  33  47 W5        29.54S
$$

...OBSERVATIONS IN SOUTHWEST NEBRASKA AND FAR NORTHEAST COLORADO...

CITY           SKY/WX    TMP DP  RH WIND       PRES   REMARKS
WRAY           FAIR      72  12  10 S10       29.38S
HOLYOKE        FAIR      63  32  31 E20       29.40R
IMPERIAL       SUNNY     57  34  41 E15       29.41S
OGALLALA       MOSUNNY   49  30  47 NE25G31   29.49R
NORTH PLATTE   SUNNY     50  29  44 NE16      29.53R
MCCOOK         SUNNY     63  32  31 E8        29.42F
LEXINGTON      SUNNY     53  38  56 N9        29.50R
GOTHENBURG       N/A     52  32  47 N8          N/A
CALLAWAY         N/A     47  33  57 NE14        N/A
$$

...OBSERVATIONS IN CENTRAL LINCOLN COUNTY AREA...

CITY           SKY/WX    TMP DP  RH WIND       PRES   REMARKS
N.P. AIRPORT   SUNNY     50  29  44 NE16      29.53R
$$

...OBSERVATIONS ACROSS THE ROCKIES AND WESTERN HIGH PLAINS...

CITY           SKY/WX    TMP DP  RH WIND       PRES   REMARKS
RAPID CITY     LGT SNOW   9   4  80 N25G32    29.76R WCI -12
SCOTTSBLUFF    MOSUNNY   33  24  69 NE26G37   29.54R WCI  20
CHEYENNE       MOSUNNY   57  11  16 W21G36    29.44R
DENVER         MOSUNNY   66  13  12 NW7       29.41R
BERTHOUD PASS  FAIR      27  14  59 W25G53    29.65R WCI  11
COPPER MTN     LGT SNOW  34   9  35 SW22G38   29.68S WCI  22
MONARCH PASS   LGT SNOW  28   9  43 W51G64    29.81F WCI   9
ASPEN          MOSUNNY   46  14  27 SW9G20    29.58F
LARAMIE        CLOUDY    45  15  30 SW21      29.46R
CASPER         CLOUDY    10   5  80 NE14      29.62R WCI  -6
$$

...OBSERVATIONS ACROSS THE NORTHERN PLAINS...

CITY           SKY/WX    TMP DP  RH WIND       PRES   REMARKS
BISMARCK       CLOUDY    12   5  73 N15G21    29.94R WCI  -4
FARGO          MIX PCPN  15  11  83 N26G33    29.83R FOG     WCI  -4
PIERRE         LGT SNOW  18  15  88 N21       29.77R FOG     WCI   1
SIOUX FALLS    CLOUDY    39  31  72 NW15      29.57R WCI  31
$$

...OBSERVATIONS ACROSS THE CENTRAL AND SOUTHERN PLAINS...

CITY           SKY/WX    TMP DP  RH WIND       PRES   REMARKS
OMAHA          CLOUDY    55  34  45 S17       29.59R
GRAND ISLAND   SUNNY     60  35  39 W5        29.51R
KANSAS CITY    PTCLDY    55  32  41 S24G32    29.68F
WICHITA        CLOUDY    53  45  74 S29G37    29.66S
DODGE CITY     SUNNY     76  28  17 SW29G43   29.49F
OKLAHOMA CITY  CLOUDY    53  50  89 S22       29.78F
DALLAS         CLOUDY    64  60  87 S12       29.89F
AMARILLO       CLOUDY    70  38  31 SW21G38   29.69S
$$




USA.gov is the U.S. government's official web portal to all federal, state and local government web resources and services.